Regional Weather Roundup
Issued by NWS Pendleton, OR

Home | Current Version | Previous Version | Text Only | Print | Product List | Glossary On
Versions: 1 2 3 4 5 6 7 8 9 10 11 12 13 14 15 16 17 18 19 20 21 22 23 24 25 26 27 28 29 30 31 32 33 34 35 36 37 38 39 40 41 42 43 44 45 46 47 48 49 50
000
ASUS46 KPDT 260710
RWRPDT
PENDLETON REGIONAL WEATHER ROUNDUP
NATIONAL WEATHER SERVICE PENDLETON OREGON
1100 PM PST SUN JAN 25 2015

NOTE: FAIR INDICATES FEW OR NO CLOUDS BELOW 12,000 FEET WITH NO
SIGNIFICANT WEATHER AND/OR OBSTRUCTIONS TO VISIBILITY.

# INDICATES UNOFFICIAL STATION AND DATA

WAZ520-260810-
EAST SLOPES OF WASHINGTON CASCADES

CITY            SKY/WX      TMP DP  RH  WIND    PRES   REMARKS
#BULLFROG 2SW   N/A         36  36  100 S2      27.71F
#BUMPING DAM    N/A         29  N/A N/A N5      N/A
#CLE ELUM HS    N/A         33  32  96  CALM    30.09F
#CLE ELUM LAKE  N/A         41  36  82  CALM    30.11S
#CLIFFDEL 2NW   N/A         32  31  96  CALM    N/A
#EASTON DOT     N/A         36  36  100 N1      N/A
#GLENWOOD       N/A         31  30  96  CALM    30.14S
#MANASTASH CYN  N/A         35  28  75  CALM    30.08F
#NELSON         N/A         31  30  96  CALM    30.19F
#NELSON 3SW     N/A         34  32  92  CALM    30.37S
#NILE           N/A         33  31  92  W1      29.43S
#PEOH POINT     N/A         49  24  37  E1      N/A
#RONALD 2NW     N/A         37  28  70  CALM    29.98S
#SNOWDEN        N/A         37  31  79  CALM    N/A
#TEANAWAY 4NE   N/A         32  32  100 CALM    N/A
#TROUT LAKE 1NE N/A         39  36  89  N1      30.12F
$$

WAZ521-260810-
SIMCOE HIGHLANDS

CITY            SKY/WX      TMP DP  RH  WIND    PRES   REMARKS
#BICKLETON HS   N/A         42  31  65  CALM    N/A
#SATUS PASS DOT N/A         43  38  82  SE7     N/A
#CENTERVILLE 4W N/A         41  38  89  E5      29.85S
#CENTERVILLE 1SWN/A         34  32  92  CALM    30.11F
#GOLDENDALE     N/A         39  39  100 S15G26  N/A    WCI 31
#GOLDENDALE 1NE N/A         36  31  82  N2      N/A
#GOLDENDALE 1S  N/A         46  40  79  CALM    30.08S
#GOLDENDALE 5WNWN/A         36  34  92  CALM    30.10S
#GOODNOE HILLS  N/A         38  36  92  SE7     N/A
#LYLE 6NE       N/A         41  40  96  CALM    30.09F
$$

WAZ026-260810-
KITTITAS VALLEY

CITY            SKY/WX      TMP DP  RH  WIND    PRES   REMARKS
ELLENSBURG AP   FOG         34  31  89  CALM    30.14S VSB 1/4
#ELLENSBURG CWU N/A         34  33  96  CALM    30.12S
#ELLENSBURG 3NE N/A         30  29  96  CALM    30.14S
#ELLENSBURG 1E  N/A         34  33  96  CALM    N/A
#KITTITAS 4N    N/A         30  28  92  CALM    28.44S
#KITTITAS 3S    N/A         36  35  96  CALM    30.17S
#THORP 6N       N/A         38  36  92  CALM    30.17F
$$

WAZ027-260810-
YAKIMA VALLEY

CITY            SKY/WX      TMP DP  RH  WIND    PRES   REMARKS
YAKIMA AIRPORT  FOG         38  36  92  SW3     30.15F VSB 1/4
YAKIMA-VAGABOND FOG         36  35  96  S2      30.14F VSB 3/8
#DONALD 2NE     N/A         37  37  100 CALM    29.00F
#GRANDVIEW      N/A         37  36  96  CALM    30.20F
#MABTON         N/A         38  38  100 CALM    30.17F
#MOXEE 2E       N/A         40  38  92  S5      30.12
#NACHES 2SW     N/A         36  35  96  NW1     30.12S
#TERRACE HTS    N/A         37  36  96  CALM    30.16F
#TOPPENISH      N/A         37  36  96  CALM    30.11F
#WAPATO 4NE     N/A         37  37  100 CALM    29.00F
#WEST VALLEY    N/A         37  36  96  CALM    30.17F
#W YAKIMA       N/A         36  35  96  CALM    30.18F
#WHITE SWAN 5E  N/A         37  36  96  CALM    30.20F
#WILEY CITY 3W  N/A         31  29  92  CALM    30.17R
$$

WAZ028-260810-
LOWER COLUMBIA BASIN...WASHINGTON

CITY            SKY/WX      TMP DP  RH  WIND    PRES   REMARKS
PASCO           CLOUDY      39  39  100 W3      30.20S FOG
PROSSER AWOS    N/A         37  37  100 SW2     30.20F
RICHLAND AWOS   CLOUDY      39  37  92  NW3     30.19F
#BASIN CITY 5SW N/A         38  37  96  W1      30.18R
#BENTON CITY    N/A         36  35  96  E3      30.10F
#CONNELL 5N     N/A         36  36  100 NW7     30.19S
#CONNELL 5NW    N/A         37  37  100 NW7     30.15S
#ELTOPIA 6NW    N/A         37  37  100 N5      29.13S
#KAHLOTUS       N/A         35  34  96  NW2     30.18S
#KENNEWICK      N/A         36  36  100 S2      27.71F
#KENNEWICK 3S   N/A         37  36  96  CALM    30.21S
#PASCO-BROADMOORN/A         39  37  92  CALM    30.11S
#PATERSON       N/A         37  36  96  CALM    30.17S
#PROSSER DOT    N/A         38  N/A N/A SE3     N/A
#PROSSER        N/A         37  36  96  CALM    30.19F
#SAGEMOOR 2W    N/A         39  38  96  NW2     30.05S
#TOUCHET 2S     N/A         38  37  96  CALM    30.21S
#WEST PASCO     N/A         39  37  92  CALM    30.16S
$$

WAZ029-260810-
FOOTHILLS OF THE BLUES...WASHINGTON

CITY            SKY/WX      TMP DP  RH  WIND    PRES   REMARKS
WALLA WALLA AP  FOG         36  35  96  CALM    30.15F VSB 1/4
#DAYTON SCHOOL  N/A         36  32  85  SW1     30.15S
#LOWDEN 2SE     N/A         37  36  96  E2      30.15S
#PLEASANT VIEW 1N/A         36  35  96  S3      30.19F
#PRESCOTT       N/A         38  37  96  CALM    30.17F
#SUDBURY        N/A         40  N/A N/A CALM    N/A
#WHITMAN COLLEGEN/A         35  35  100 CALM    30.25S
#WAITSBURG 5S   N/A         33  32  96  NE1     30.24F
#WAITSBURG 8N   N/A         32  24  72  S2      29.97F
#WALLA WALLA 5E N/A         35  34  96  CALM    N/A
#WALLA WALLA U  N/A         37  36  96  CALM    30.20S
#WHITMAN MISSIONN/A         37  36  96  CALM    30.22S
$$

WAZ030-260810-
BLUE MOUNTAINS...WASHINGTON

CITY            SKY/WX      TMP DP  RH  WIND    PRES   REMARKS
#DIXIE 5SE      N/A         66  28  24  SW8     30.14S
#SKI BLUEWOOD   N/A         38  33  82  S1      30.25R
$$

ORZ009-041-WAZ024-260810-
COLUMBIA RIVER GORGE

CITY            SKY/WX      TMP DP  RH  WIND    PRES   REMARKS
HOOD RIVER AP   CLOUDY      43  41  93  CALM    30.12F FOG
THE DALLES AP   CLOUDY      46  44  93  E6      30.15S FOG
#ARLINGTON AIRPON/A         36  36  100 E6      30.01S
#ARLINGTON HS   N/A         40  40  100 S1      30.11S
#CELILO DOT     N/A         45  42  89  NE3     N/A
#LYLE           N/A         46  44  93  SE7     30.15F
#MARYHILL       N/A         42  N/A N/A CALM    N/A
#MOSIER 1S      N/A         43  41  93  CALM    30.15S
#MURDOCK        N/A         47  46  96  E1      30.17S
#RUFUS DOT      N/A         42  39  89  NE9     N/A

$$

ORZ510-260810-
NORTH CENTRAL OREGON

CITY            SKY/WX      TMP DP  RH  WIND    PRES   REMARKS
#CHENOWITH 1W   N/A         40  40  100 E8      N/A
#COW CYN RST AREN/A         56  37  49  NE2     N/A
#DUFUR 9E       N/A         41  40  96  CALM    30.11S
#GRASS VALLEY 1SN/A         40  38  92  CALM    30.10F
#KENT DOT       N/A         50  32  50  S3      N/A
#MAUPIN SCHOOL  N/A         43  39  86  CALM    30.11S
#MORO SCHOOL    N/A         35  35  100 CALM    30.12S
#SHANIKO 5WSW   N/A         55  28  35  SE16    N/A
#SHANIKO 4NW    N/A         54  36  50  S15     30.10F
#TYGH VALLEY 2NEN/A         42  38  86  NE1     30.10F
#WAPANITIA AIRPON/A         40  38  92  CALM    30.10F
#WASCO DOT      N/A         42  40  93  E7      N/A
#WASCO 5NE      N/A         37  36  96  CALM    30.15R
$$

ORZ511-260810-
CENTRAL OREGON

CITY            SKY/WX      TMP DP  RH  WIND    PRES   REMARKS
BEND AIRPORT    PTCLDY      48  37  65  E8      30.16S
MADRAS AIRPORT  N/A         39  37  92  CALM    30.12F
PRINEVILLE AP   CLEAR       54  39  57  SE12    30.16R
REDMOND AIRPORT PTCLDY      54  38  55  SE8     30.13S
#BEND 1SW       N/A         43  37  79  SW2     N/A
#BEND-AWBREY    N/A         53  38  57  S8      30.06S
#BEND-KIM LN    N/A         45  36  70  CALM    30.11F
#CROOKED RVR RANN/A         52  41  66  S22G30  30.08R
#CULVER         N/A         51  40  66  CALM    30.07S
#LAKE BILLY CHINN/A         48  29  47  CALM    30.18S
#POWELL BUTTE 3EN/A         54  39  57  SE12    N/A
#POWELL BUTTE   N/A         57  39  51  S21     29.75S
#PRINEVILLE 3N  N/A         40  36  85  E3      30.11R
#WARM SPRINGS   N/A         39  37  92  CALM    30.07S

$$


ORZ509-260810-
EAST SLOPES OF OREGON CASCADES

CITY            SKY/WX      TMP DP  RH  WIND    PRES   REMARKS
#BLUE BOX PASS  N/A         54   1  11  CALM    N/A
#CAMP SHERMAN   N/A         33  31  92  CALM    30.21F
#LA PINE DOT    N/A         44  33  65  S3      N/A
#LA PINE 4NW    N/A         40  33  76  CALM    30.23F
#LAVA BUTTE DOT N/A         43  33  67  SE1     N/A
#MT BACHELOR-MIDN/A         48  26  42  N21G29  N/A    WCI 41
#SISTERS AIRPOR N/A         34  34  100 CALM    30.17S
#SISTERS ODOT   N/A         35  N/A N/A CALM    N/A
#SISTERS 3N     N/A         33  27  78  CALM    30.13S
#SUNRIVER       N/A         40  34  79  CALM    30.07S
#TUMALO 3W      N/A         51  37  59  SE5     29.96S
#WANOGA BUTTE D N/A         48  32  54  W7      N/A

$$

ORZ044-260810-
LOWER COLUMBIA BASIN...OREGON

CITY            SKY/WX      TMP DP  RH  WIND    PRES   REMARKS
HERMISTON       CLOUDY      38  37  96  N3      30.16S FOG
#BOARDMAN 3W    N/A          0   0  100 NE3     29.91S
#BOARDMAN 8SW   N/A         38  37  96  CALM    30.18S
#ECHO 8SW       N/A         38  38  100 NE2     30.14S
#IONE SCHOOL    N/A         37  27  67  CALM    30.14R
#IRRIGON 4NW    N/A         38  38  100 E1      N/A
#UMATILLA SCHOOLN/A         35  35  100 CALM    30.23R
#UMATILLA       N/A         39  35  85  CALM    30.15R
$$

ORZ507-260810-
NORTHERN FOOTHILLS OF THE BLUES

CITY            SKY/WX      TMP DP  RH  WIND    PRES   REMARKS
PENDLETON AIRPT FOG         33  32  96  NW10    30.11R VSB<1/4
#ADAMS 3WNW     N/A         36  32  85  E8      30.10S
#ATHENA         N/A         34  32  92  NE5     30.15R
#CAYUSE         N/A         38  37  96  CALM    30.09R
#HELIX SCHOOL   N/A         40  34  79  NE2     30.11S
#HELIX 3N       N/A         34  33  96  CALM    30.08F
#HOLDMAN 5SE    N/A         36  34  92  CALM    30.11S
#HOLDMAN 6E     N/A         34  33  96  SW7     29.92S
#M-F FERNDALE   N/A         36  35  96  CALM    30.16S
#M-F GROVE ELEM N/A         35  33  92  CALM    30.13F
#M-FREEWATER 5SEN/A         33  32  96  CALM    30.14S
#PENDLETON DNTN N/A         36  30  79  CALM    28.94R
#PDT AQUATIC CTRN/A         36  29  75  N6      30.13S
#PENDLETON 5NE  N/A         34  32  92  CALM    30.07R
#PDT SUNRIDGE   N/A         34  33  96  CALM    30.13S
#PENDLETON 7NW  N/A         36  33  89  CALM    27.52S
#PILOT ROCK     N/A         38  33  82  S1      30.13R
#TUTUILLA       N/A         34  32  92  CALM    30.12S
#UMAPINE 2E     N/A         37  36  96  E1      30.14F
#WESTON SCHOOL  N/A         31  29  92  NE5     30.11S

$$

ORZ508-260810-
SOUTHERN FOOTHILLS OF THE BLUES

CITY            SKY/WX      TMP DP  RH  WIND    PRES   REMARKS
LEXINGTON       FOG         36  36  100 N3      30.15R VSB<1/4
#AJAX           N/A         37  31  79  NE2     30.03S
#CONDON SCHOOL  N/A         54  41  61  CALM    30.06S
#CONDON 5W      N/A         55  36  49  S7      30.08S
#FOSSIL SCHOOL  N/A         61  38  42  E9      30.07F
#HEPPNER EOC    N/A         39  38  96  W6      30.05R
#HEPPNER 4NE    N/A         47  36  65  E3      30.05R
#LEXINGTON 2SE  N/A         38  35  89  NW1     30.10R
#MIKKALO        N/A         38  38  100 E6      30.12R
#OLEX 4N        N/A         38  37  96  NE2     30.14S
#RUGGS 5NE      N/A         60  34  37  E5      30.27S
#RUGGS 2SW      N/A         58  36  44  S15G25  30.05S

$$

ORZ502-503-260810-
BLUE MOUNTAINS

CITY            SKY/WX      TMP DP  RH  WIND    PRES   REMARKS
MEACHAM         CLEAR       42  33  70  CALM    30.19F
#BATTLE MTN DOT N/A         47  33  58  SE10    N/A
#HARDMAN 10S    N/A         45  35  68  S5      30.28S
#HEPPNER 15SE   N/A         59  31  34  E1      30.06F
#LADD CYN SMT   N/A         37  30  75  E30     N/A    WCI 24
#LADD CREEK ODOTN/A         40  33  76  S14     N/A    WCI 32
#LONG CREEK HS  N/A         43  38  82  CALM    30.14F
#N POWDER DOT   N/A         29  28  96  SW5     N/A
#PIKES PEAK     N/A         65  27  24  S13     27.99S
#TOLLGATE       N/A         45  34  65  W1      30.13S
#TROY SCHOOL    N/A         37  34  89  W6      30.19R
#UKIAH          N/A         30  28  92  CALM    30.31F
#WESTON 4E      N/A         51  34  52  E16G26  30.05S
$$

ORZ505-260810-
JOHN DAY BASIN

CITY            SKY/WX      TMP DP  RH  WIND    PRES   REMARKS
JOHN DAY        CLEAR       46  34  63  E9      30.23F
#JOHN DAY KJDY  N/A         39  39  100 E1      30.14F
#DAYVILLE SCHOOLN/A         48  36  63  SE1     30.15F
#MONUMENT HS    N/A         39  35  85  CALM    30.19S
#MT. VERNON 5SE N/A         54  36  50  E2      30.18F
#WINLOCK        N/A         51  35  54  SW2     30.24S
$$

ORZ506-260810-
OCHOCO AND JOHN DAY HIGHLANDS

CITY            SKY/WX      TMP DP  RH  WIND    PRES   REMARKS
#HORSE RIDGE DO N/A         49  35  58  SE8     N/A
#KEYES SMT DOT  N/A         53  35  50  E15     N/A
#PAULINA SCHOOL N/A         57  40  53  CALM    30.19R
#PINE MTN OBS   N/A         50  32  50  S15G26  N/A
#PRAIRIE CITY   N/A         31  26  81  CALM    30.40F
#SENECA         N/A         30  N/A N/A CALM    N/A
#SENECA 9NW     N/A         28  27  96  CALM    30.37S
$$

ORZ049-260810-
GRANDE RONDE VALLEY

CITY            SKY/WX      TMP DP  RH  WIND    PRES   REMARKS
LA GRANDE       CLEAR       43  28  55  S25G37  30.25F WCI 33
#COVE           N/A         35  29  78  NW5     30.03S
#COVE SCHOOL    N/A         35  33  92  NE1     30.22F
#COVE 6NW       N/A         38  33  82  E1      30.36S
#ELGIN 3N       N/A         42  31  65  CALM    30.05S
#ELGIN 1E       N/A         41  34  76  SE6     N/A
#IMBLER SCHOOL  N/A         40  34  79  S12G28  30.20F WCI 33
#ISLAND CITY 4N N/A         42  42  100 CALM    29.98S
#LADD CYN DOT   N/A         44  33  65  S23G37  N/A    WCI 35
#UNION 1S       N/A         41  35  79  SE29G41 30.24F WCI 30
$$

ORZ050-260810-
WALLOWA COUNTY

CITY            SKY/WX      TMP DP  RH  WIND    PRES   REMARKS
#ENTERPRISE AP  N/A         29  27  92  CALM    30.17S
#ENTERPRISE HS  N/A         27  26  96  CALM    30.25S
#IMNAHA SCHOOL  N/A         42  38  86  N2      30.21S
#IMNAHA 10S     N/A         54  36  50  SW2     30.20S
#JOSEPH 3N      N/A         27  27  100 CALM    30.26S
#JOSEPH 3W      N/A         33  29  85  CALM    30.05F
#LOSTINE        N/A         28  27  96  CALM    30.17S
#MT HOWARD 8000 N/A         53  23  31  S15G25  30.37S
#PROMISE 1S     N/A         34  32  92  CALM    30.41F
#SHEEP RDG 7000 N/A         55  19  24  CALM    30.12F
#WALLOWA SCHOOL N/A         30  29  96  CALM    31.35F



$$



USA.gov is the U.S. government's official web portal to all federal, state and local government web resources and services.